Tracking 29892 objects as of 21-Nov-2024
HD Live streaming from Space Station
objects crossing your sky now

THORAD AGENA D DEB

Track THORAD AGENA D DEB now!
10-day predictions


NORAD ID: 5151
Int'l Code: 1970-025JU
Perigee: 1,025.1 km
Apogee: 1,026.5 km
Inclination: 100.1 °
Period: 105.5 minutes
Semi major axis: 7396 km
RCS: 0.0187 m2 (small)
Launch date: April 8, 1970
Source: United States (US)
Launch site: AIR FORCE WESTERN TEST RANGE (AFWTR)

Note: This is SATELLITE DEBRIS
Your satellite tracking list
Your tracking list is empty




NASA's NSSDC Master Catalog

Two Line Element Set (TLE):
1  5151U 70025JU  24326.05931574  .00000762  00000-0  10061-2 0  9992
2  5151 100.1284 162.6724 0000968 189.9760 321.7875 13.64693490205792
Source of the keplerian elements: AFSPC